Probability
0 0 0 0 0 0 0 0 0 0 0 0 0 0 0 0 0 0 0 0 0 0 0 0 0 0 0 0 0 0 0 0 0 0 0 0 0 0 0 0 0 0 0
0 0 0 0 0 0 0 0 0 0 0 0 0 0 0 0 0 0 0 0 0 0 0 0 0 0 0 0 0 0 0 0 0 0 0 0 0 0 0 0 0 0 0
0 0 0 0 0 0 0 0 0 0 0 0 0 0 0 0 0 0 0 0 0 0 0 0 0 0 0 0 0 0 0 0 0 0 0 0 0 0 0 0 0 0 0
0 0 0 0 0 0 0 0 0 0 0 0 0 0 0 0 0 0 0 0 0 0 0 0 0 0 0 0 0 0 0 0 0 0 0 0 0 0 0 0 0 0 0
0 0 0 0 0 0 0 0 0 0 0 0 0 0 0 0 0 0 0 0 0 0 0 0 0 0 0 0 0 0 0 0 0 0 0 0 0 0 0 0 0 0 0
0 0 0 0 0 0 0 0 0 0 0 0 0 0 0 0 0 0 0 0 0 0 0 0 0 0 0 0 0 0 0 0 0 0 0 0 0 0 0 0 0 0 0
0 0 0 0 0 0 0 0 0 0 0 0 0 0 0 0 0 0 0 0 0 0 0 0 0 0 0 0 0 0 0 0 0 0 0 0 0 0 0 0 0 0 0
0 0 0 0 0 0 0 0 0 0 0 0 0 0 0 0 0 0 0 0 0 0 0 0 0 0 0 0 0 0 0 0 0 0 0 0 0 0 0 0 0 0 0
0 0 0 0 0 0 0 0 0 0 0 0 0 0 0 0 0 0 0 0 0 0 0 0 0 0 0 0 0 0 0 0 0 0 0 0 0 0 0 0 0 0 0
0 0 0 0 0 0 0 0 0 0 0 0 0 0 0 0 0 0 0 0 0 0 0 0 0 0 0 0 0 0 0 0 0 0 0 0 0 0 0 0 0 0 0
0 0 0 0 0 0 0 0 0 0 0 0 0 0 0 0 0 0 0 0 0 0 0 0 0 0 0 0 0 0 0 0 0 0 0 0 0 0 0 0 0 0 0
0 0 0 0 0 0 0 0 0 0 0 0 0 0 0 0 0 0 0 0 0 0 0 0 0 0 0 0 0 0 0 0 0 0 0 0 0 0 0 0 0 0 0
0 0 0 0 0 0 0 0 0 0 0 0 0 0 0 0 0 0 0 0 0 0 0 0 0 0 0 0 0 0 0 0 0 0 0 0 0 0 0 0 0 0 0
0 0 0 0 0 0 0 0 0 0 0 0 0 0 0 0 0 0 0 0 0 0 0 0 0 0 0 0 0 0 0 0 0 0 0 0 0 0 0 0 0 0 0
0 0 0 0 0 0 0 0 0 0 0 0 0 0 0 0 0 0 0 0 0 0 0 0 0 0 0 0 0 0 0 0 0 0 0 0 0 0 0 0 0 0 0
0 0 0 0 0 0 0 0 0 0 0 0 0 0 0 0 0 0 0 0 0 0 0 0 0 0 0 0 0 0 0 0 0 0 0 0 0 0 0 0 0 0 0
0 0 0 0 0 0 0 0 0 0 0 0 0 0 0 0 0 0 0 0 0 0 0 0 0 0 0 0 0 0 0 0 0 0 0 0 0 0 0 0 0 0 0
0 0 0 0 0 0 0 0 0 0 0 0 0 0 0 0 0 0 0 0 0 0 0 0 0 0 0 0 0 0 0 0 0 0 0 0 0 0 0 0 0 0 0
0 0 0 0 0 0 0 0 0 0 0 0 0 0 0 0 0 0 0 0 0 0 0 0 0 0 0 0 0 0 0 0 0 0 0 0 0 0 0 0 0 0 0
0 0 0 0 0 0 0 0 0 0 0 0 0 0 0 0 0 0 0 0 0 0 0 0 0 0 0 0 0 0 0 0 0 0 0 0 0 0 0 0 0 0 0
0 0 0 0 0 0 0 0 0 0 0 0 0 0 0 0 0 0 0 0 0 0 0 0 0 0 0 0 0 0 0 0 0 0 0 0 0 0 0 0 0 0 0
0 0 0 0 0 0 0 0 0 0 0 0 0 0 0 0 0 0 0 0 0 0 0 0 0 0 0 0 0 0 0 0 0 0 0 0 0 0 0 0 0 0 0
0 0 0 0 0 0 0 0 0 0 0 0 0 0 0 0 0 0 0 0 0 0 0 0 0 0 0 0 0 0 0 0 0 0 0 0 0 0 0 0 0 0 0
0 0 0 0 0 0 0 0 0 0 0 0 0 0 0 0 0 0 0 0 0 0 0 0 0 0 0 0 0 0 0 0 0 0 0 0 0 0 0 0 0 0 0
0 0 0 0 0 0 0 0 0 0 0 0 0 0 0 0 0 0 0 0 0 0 0 0 0 0 0 0 0 0 0 0 0 0 0 0 0 0 0 0 0 0 0
0 0 0 0 0 0 0 0 0 0 0 0 0 0 0 0 0 0 0 0 0 0 0 0 0 0 0 0 0 0 0 0 0 0 0 0 0 0 0 0 0 0 0
Wind_Speed
12 7 8 9 9 10 11 12 13 12 10 8 8 8 8 6 6 6 7 8 8 8 7 5 5 5 5 5 5 3 3 2 1 1 3 3 2 2 2 2 2 2 2
9 8 9 10 12 13 14 13 14 13 12 10 8 5 5 5 6 6 7 9 9 8 7 7 6 6 5 5 5 4 3 2 3 2 1 3 4 3 1 1 1 2 2
13 11 10 11 12 14 16 14 15 15 14 11 6 4 4 3 5 6 6 8 9 9 8 9 7 7 7 6 7 7 6 4 3 3 3 2 2 3 3 2 1 2 2
12 11 10 10 13 15 13 14 14 14 13 13 10 10 10 9 8 6 6 7 8 9 9 9 8 8 6 6 6 6 5 4 3 2 3 3 2 1 4 3 2 2 2
13 13 12 13 12 11 10 11 12 13 13 13 14 13 11 8 5 5 7 8 7 8 8 8 8 7 6 6 6 6 6 5 4 4 3 2 2 2 3 5 3 2 2
12 12 10 8 8 7 7 8 11 12 12 14 15 15 14 10 8 7 8 6 5 5 7 7 7 7 6 6 6 6 6 5 4 3 3 3 3 3 3 4 3 4 3
10 10 9 9 8 8 9 9 11 12 12 14 15 15 14 13 12 10 9 7 5 5 6 6 6 5 5 5 5 5 5 5 4 4 3 2 2 2 2 2 2 3 3
8 8 9 8 8 8 8 9 10 11 11 12 13 12 11 9 8 9 8 8 6 5 5 6 6 5 5 5 5 4 4 4 4 3 3 2 1 1 1 1 1 3 3
8 7 6 5 6 6 7 8 8 8 9 10 10 10 10 9 8 8 7 6 5 5 6 6 6 5 5 5 5 4 4 4 3 3 3 2 1 1 1 1 1 2 3
6 5 4 4 4 4 4 5 6 6 6 7 7 7 8 8 7 7 7 7 6 6 7 6 6 6 5 5 5 5 4 5 4 3 4 3 2 2 2 1 0 1 2
6 5 4 3 3 3 4 4 4 4 4 5 5 6 6 7 7 7 7 7 7 7 8 7 7 7 6 6 6 6 5 6 5 4 5 4 3 3 2 2 2 1 0
5 4 5 5 4 4 4 4 4 4 4 4 4 5 5 6 7 7 7 7 8 7 7 8 8 7 7 6 7 6 6 6 6 5 5 4 3 4 3 2 2 1 1
4 4 5 5 5 5 5 4 4 4 4 5 5 5 5 6 7 7 7 8 8 8 8 8 8 8 7 6 6 6 6 6 6 5 5 4 4 4 2 2 2 1 1
5 5 5 6 6 5 5 5 5 5 5 5 6 6 5 6 7 7 7 8 8 9 9 8 8 8 7 7 7 7 7 7 6 5 5 4 4 3 2 2 1 1 1
6 7 7 7 6 6 5 5 5 5 5 6 6 6 6 6 7 8 8 8 8 8 9 9 8 7 6 6 7 7 7 7 6 5 4 4 3 3 2 1 1 1 1
9 9 9 9 9 9 8 7 7 6 6 7 6 6 7 7 7 8 8 9 9 8 8 8 9 7 5 10 12 9 7 6 6 5 4 3 3 2 3 3 2 2 2
10 10 11 11 11 10 10 9 8 7 7 7 7 7 7 8 7 8 8 9 8 8 8 8 8 8 8 12 12 11 7 6 5 4 3 2 2 1 0 1 3 3 5
10 11 10 10 9 8 8 8 8 8 8 8 8 8 8 8 8 8 8 8 7 8 7 7 7 7 8 11 11 11 7 5 4 3 3 2 1 0 1 1 2 2 3
10 9 9 8 8 10 10 10 9 9 9 9 9 9 9 10 9 9 8 7 7 7 6 6 7 7 7 10 11 10 5 4 4 3 2 2 1 2 4 2 3 4 4
6 6 6 7 9 10 11 11 11 10 11 10 9 8 9 10 10 9 8 6 7 7 7 7 5 6 5 8 10 9 4 4 3 2 1 1 1 3 4 1 2 4 5
5 5 7 8 8 10 12 11 11 11 9 8 9 8 8 8 9 8 7 8 7 8 7 7 5 4 4 6 8 7 3 3 3 2 1 1 3 4 5 4 2 5 6
3 5 6 6 6 10 11 11 10 8 9 9 9 8 8 7 7 9 8 7 8 8 7 6 5 3 2 3 5 6 5 4 3 2 1 2 4 4 5 3 5 7 5
3 3 5 6 5 7 9 10 8 9 10 10 9 8 8 7 7 9 9 7 6 6 6 6 5 4 2 2 5 5 5 4 2 2 2 2 3 3 2 4 5 3 2
2 3 5 6 5 5 5 6 9 10 10 10 9 8 8 7 6 5 6 7 7 7 6 6 5 5 4 3 3 2 2 3 2 1 0 1 2 1 2 2 2 2 1
3 3 5 5 5 5 5 7 8 10 10 9 8 8 7 7 6 5 4 5 4 6 7 7 7 7 6 7 8 5 4 3 2 2 1 0 0 1 1 1 1 1 1
3 4 4 5 5 6 6 6 7 9 10 9 8 7 6 6 6 6 4 4 4 5 7 7 7 4 6 8 9 8 6 6 5 3 2 2 2 2 2 2 2 2 2
Wind_Direction
238 225 212 203 197 198 199 199 198 196 188 189 195 199 206 202 201 202 199 197 195 192 192 192 187 183 194 201 193 188 206 227 192 296 309 304 285 282 289 297 306 326 323
244 230 215 204 204 206 206 204 204 198 195 198 195 190 184 193 198 197 200 200 198 195 194 196 194 193 198 199 194 185 185 200 174 180 299 322 331 332 335 337 340 333 338
236 231 217 212 209 210 208 207 206 202 200 194 180 167 167 167 188 200 203 203 199 197 197 200 197 195 196 203 202 195 192 201 193 190 186 221 269 307 317 328 336 340 345
231 228 218 214 213 216 210 207 204 202 198 191 189 188 198 205 204 195 195 196 198 200 201 202 201 199 199 205 203 197 194 185 197 195 213 217 195 247 307 309 306 318 312
226 226 220 216 215 211 204 204 201 201 196 195 197 198 207 209 189 180 189 198 200 203 203 203 201 201 201 203 195 190 193 193 193 184 178 197 208 212 238 286 305 314 281
226 229 228 215 213 201 196 195 196 202 196 197 200 202 205 199 187 189 194 197 194 199 204 200 198 197 197 197 193 191 192 195 193 187 176 177 182 195 211 255 287 303 299
224 224 221 212 207 198 195 193 194 201 197 198 202 204 204 200 199 195 196 191 191 195 200 190 190 190 190 185 177 177 181 181 181 185 185 188 196 175 184 235 275 288 297
229 225 222 213 208 200 193 191 195 199 195 198 202 202 199 198 200 195 190 191 191 190 181 177 176 175 172 168 162 160 161 155 162 164 160 153 150 151 168 185 225 288 295
229 225 221 209 201 192 190 190 190 193 194 196 195 196 194 194 191 185 183 178 173 164 159 154 153 153 150 149 144 144 145 140 142 144 140 134 124 114 116 148 179 226 284
225 216 206 196 188 180 170 169 179 186 187 188 190 191 190 188 181 171 170 163 158 153 148 144 142 136 130 130 128 125 126 121 116 117 113 102 93 93 86 96 100 205 242
224 208 194 179 165 153 151 154 161 162 168 176 177 176 175 170 164 163 162 156 149 149 145 143 138 133 127 126 124 119 120 118 110 103 106 99 90 87 72 65 62 45 324
213 193 178 166 165 165 160 158 157 157 160 157 155 157 151 150 151 150 148 145 141 138 135 134 129 125 123 122 124 123 120 121 116 108 103 97 91 83 71 66 60 41 9
204 179 175 180 181 176 169 162 157 153 145 141 140 139 141 143 143 140 138 136 134 128 125 127 127 125 121 117 114 117 114 110 108 107 106 104 100 90 75 70 60 29 356
207 198 196 195 192 184 175 166 159 151 145 140 140 141 142 138 134 131 131 129 131 129 125 120 120 119 116 114 114 113 110 105 100 98 101 102 102 105 98 83 57 6 332
221 212 206 201 195 189 181 170 162 155 149 142 140 138 127 122 123 124 122 120 119 121 122 120 115 112 114 119 121 117 115 112 106 98 94 96 96 91 89 86 31 347 324
226 216 207 201 200 195 186 175 168 161 151 146 141 133 128 125 125 126 125 122 119 119 120 122 123 118 116 124 121 119 116 115 114 111 102 97 89 75 55 31 3 342 321
225 215 210 207 203 195 183 179 168 154 150 146 143 142 139 134 133 131 128 128 127 124 122 121 121 120 124 124 120 116 117 117 117 119 118 109 95 94 78 337 336 322 312
223 217 210 205 195 177 169 160 154 155 154 152 152 151 147 141 138 135 133 132 129 129 125 123 121 118 124 126 124 121 114 113 115 119 124 128 131 259 308 291 300 291 292
217 214 204 190 171 169 164 156 158 159 161 165 164 161 154 149 148 146 142 137 132 126 122 125 126 124 128 132 131 125 120 120 122 126 130 143 184 299 332 337 312 307 298
215 204 178 162 166 167 157 160 166 170 178 174 165 157 155 155 154 147 140 131 130 127 124 122 121 125 131 141 138 131 127 131 133 135 147 190 247 305 325 325 302 301 304
208 176 163 170 172 160 159 167 171 184 172 149 145 147 151 150 144 136 133 133 128 124 121 121 117 117 125 145 144 144 139 147 150 166 185 243 295 310 316 318 290 298 316
172 160 161 166 156 159 164 171 180 162 139 140 143 145 144 142 140 136 133 133 134 131 130 127 123 114 115 138 153 155 153 150 156 182 204 252 295 309 316 321 322 329 338
160 150 152 146 146 163 169 172 159 142 141 140 143 142 137 136 142 144 144 140 141 142 146 148 150 154 150 167 166 169 166 164 160 190 227 272 298 320 332 331 338 353 346
137 134 139 148 155 159 154 144 139 142 142 144 145 146 144 141 139 143 150 153 158 156 156 161 164 163 169 183 183 175 174 178 178 171 215 301 305 319 339 340 343 348 320
128 136 151 155 152 139 131 133 141 143 143 143 145 148 148 149 147 143 155 159 166 174 170 174 169 170 186 198 188 174 181 179 179 136 89 53 340 297 299 302 296 299 310
129 130 134 139 140 136 135 139 146 149 147 149 154 156 154 152 150 146 131 154 160 173 175 171 166 178 184 179 187 191 193 190 178 149 176 208 219 234 244 258 272 269 274